This demonstration page uses our WeatherBlox Daily Observations layout. Learn more.

39.29038, -76.61219

Hourly Observations for September 16, 2019

Temp ( °F °C ) Dew Point ( °F °C ) Humidity (%) Winds ( mph kmh ) Pressure ( in mb ) Visibility ( mi km ) Precip ( " mm )
12:54 am 00:54 undefined 72 22.2 57 13.9 59 59 undefined N/A 30.09 1019 N/A 0 0
1:54 am 01:54 undefined 71 21.7 58 14.4 63 63 undefined N/A 30.09 1019 N/A 0 0
2:54 am 02:54 undefined 70 21.1 59 15 68 68 undefined N/A 30.08 1019 N/A 0 0
3:54 am 03:54 undefined 70 21.1 60 15.6 71 71 undefined N/A 30.07 1018 N/A 0 0
4:54 am 04:54 undefined 71 21.7 60 15.6 68 68 undefined N/A 30.07 1018 N/A 0 0
5:54 am 05:54 undefined 70 21.1 59 15 68 68 undefined N/A 30.07 1018 N/A 0 0
6:54 am 06:54 undefined 70 21.1 59 15 68 68 undefined N/A 30.07 1018 N/A 0 0
7:54 am 07:54 undefined 72 22.2 60 15.6 66 66 undefined N/A 30.07 1018 N/A 0 0
8:54 am 08:54 undefined 76 24.4 61 16.1 60 60 undefined N/A 30.07 1018 N/A 0 0
9:54 am 09:54 undefined 78 25.6 63 17.2 60 60 undefined N/A 30.07 1018 N/A 0 0
10:54 am 10:54 undefined 81 27.2 64 17.8 57 57 undefined N/A 30.06 1018 N/A 0 0
11:54 am 11:54 undefined 86 30 64 17.8 48 48 undefined N/A 30.04 1017 N/A 0 0
12:54 pm 12:54 undefined 90 32.2 66 18.9 45 45 undefined N/A 30.02 1017 N/A 0 0
1:54 pm 13:54 undefined 90 32.2 66 18.9 45 45 undefined N/A 30 1016 N/A 0 0
2:54 pm 14:54 undefined 90 32.2 66 18.9 45 45 undefined N/A 29.98 1015 N/A 0 0
3:54 pm 15:54 undefined 87 30.6 66 18.9 50 50 undefined N/A 29.97 1015 N/A 0 0
4:54 pm 16:54 undefined 84 28.9 65 18.3 53 53 undefined N/A 29.97 1015 N/A 0 0
5:54 pm 17:54 undefined 84 28.9 65 18.3 53 53 undefined N/A 29.96 1015 N/A 0 0
6:54 pm 18:54 undefined 83 28.3 64 17.8 53 53 undefined N/A 29.97 1015 N/A 0 0
7:54 pm 19:54 undefined 83 28.3 64 17.8 53 53 undefined N/A 29.98 1015 N/A 0 0
8:54 pm 20:54 undefined 80 26.7 65 18.3 60 60 undefined N/A 29.99 1016 N/A 0 0
9:54 pm 21:54 undefined 79 26.1 64 17.8 60 60 undefined N/A 30 1016 N/A 0 0
10:54 pm 22:54 undefined 78 25.6 64 17.8 62 62 undefined N/A 30.01 1016 N/A 0 0
11:54 pm 23:54 undefined 78 25.6 63 17.2 60 60 undefined N/A 30.01 1016 N/A 0 0

Powered by AerisWeather